Flag for Colombia Weather past 2 weeks in Villavicencio, Colombia

Now
55 °F

Passing clouds.


Feels Like: 53 °F
Forecast: 65 / 87 °F
Wind: 9 mph from Northeast

Location: Bogota / Eldorado

Current Time: Jul 30, 2015 at 8:06:22 PM

Latest Report: Jul 30, 2015 at 7:00 PM


Visibility: N/A

Pressure: 30.33 "Hg

Humidity: 82%

Dew point: 50 °F

Location of VillavicencioLocation

Historic Weather in Villavicencio — Graph

°F

Villavicencio temperature yesterday

Maximum temperature yesterday: 66 °F (at 12:00 PM)
Minimum temperature yesterday: 50 °F (at 12:00 AM)
Average temperature yesterday: 57 °F

Past Weeks' High & Low Weather Summary

 TemperatureHumidityPressure
High68 °F (Jul 16, 1:00 PM)100% (Jul 17, 5:00 AM)30.44 "Hg (Jul 17, 5:00 AM)
Low37 °F (Jul 19, 8:00 PM)40% (Jul 16, 3:00 PM)30.07 "Hg (Jul 29, 9:00 PM)
Average57 °F73%30.35 "Hg
* Reported Jul 15 7:00 PM — Jul 30 7:00 PM, Villavicencio, Weather by CustomWeather, © 2015

Note: Actual official high and low records may vary slightly from our data, if they occured in-between our weather recording intervals... More about our weather records

Advertising

Villavicencio weather history for previous 24 hours

 ConditionsComfort  
Time TempWeatherWind HumidityBarometerVisibility
7:00 PM
Thu, Jul 30
55 °FPassing clouds.9 mph82%30.33 "HgN/A
6:00 PM61 °FScattered showers. Broken clouds.10 mph59%30.32 "HgN/A
5:00 PM61 °FScattered showers. Scattered clouds.12 mph59%30.29 "HgN/A
4:00 PM63 °FScattered showers. Scattered clouds.12 mph56%30.28 "HgN/A
3:00 PM63 °FScattered clouds.14 mph56%30.28 "HgN/A
2:00 PM61 °FDrizzle. Cloudy.16 mph72%30.31 "Hg6 mi
1:00 PM59 °FScattered showers. Scattered clouds.9 mph77%30.32 "HgN/A
12:00 PM59 °FDrizzle. Broken clouds.10 mph68%30.36 "Hg5 mi
11:00 AM63 °FPartly sunny.16 mph56%30.36 "HgN/A
10:00 AM61 °FPartly sunny.9 mph59%30.37 "HgN/A
9:00 AM57 °FPartly sunny.7 mph72%30.37 "HgN/A
8:00 AM54 °FScattered clouds.2 mph88%30.36 "HgN/A
7:00 AM52 °FScattered clouds.2 mph94%30.35 "HgN/A
6:00 AM50 °FBroken clouds.6 mph94%30.33 "HgN/A
5:00 AM52 °FPassing clouds.3 mph88%30.34 "HgN/A
4:00 AM52 °FPassing clouds.6 mph88%30.33 "HgN/A
3:00 AM52 °FPassing clouds.7 mph88%30.33 "HgN/A
2:00 AM54 °FScattered showers. Passing clouds.5 mph82%30.34 "HgN/A
1:00 AM54 °FScattered showers. Passing clouds.9 mph88%30.34 "HgN/A
12:00 AM52 °FPassing clouds.5 mph94%30.38 "HgN/A
11:00 PM
Wed, Jul 29
54 °FPassing clouds.7 mph82%30.39 "HgN/A
10:00 PM54 °FPassing clouds.6 mph88%30.39 "Hg5 mi
9:00 PM57 °FPassing clouds.8 mph72%30.07 "Hg5 mi
8:00 PM54 °FPassing clouds.5 mph77%30.32 "HgN/A
Weather by CustomWeather, © 2015

See weather overviewHow to use our weather pages